QPF
0.00 0.00 0.00 0.00 0.00 0.00 0.00 0.00 0.00 0.00 0.00 0.00 0.00 0.00 0.00 0.00 0.00 0.00 0.00 0.00 0.01 0.00 0.00 0.00 0.00 0.00 0.00 0.00 0.00 0.00 0.00 0.01 0.00 0.00 0.00 0.00 0.01 0.00 0.00 0.00 0.03 0.00 0.00
0.00 0.00 0.00 0.00 0.00 0.00 0.00 0.00 0.00 0.00 0.00 0.00 0.00 0.00 0.00 0.00 0.00 0.00 0.00 0.00 0.00 0.01 0.00 0.00 0.00 0.00 0.00 0.00 0.00 0.00 0.00 0.01 0.02 0.00 0.00 0.00 0.02 0.02 0.00 0.01 0.04 0.01 0.01
0.00 0.00 0.00 0.00 0.00 0.00 0.00 0.00 0.00 0.00 0.00 0.00 0.00 0.00 0.00 0.00 0.00 0.00 0.00 0.00 0.00 0.00 0.02 0.00 0.00 0.00 0.00 0.00 0.00 0.00 0.00 0.01 0.05 0.02 0.00 0.00 0.02 0.04 0.01 0.01 0.01 0.01 0.00
0.00 0.00 0.00 0.00 0.00 0.00 0.00 0.00 0.00 0.00 0.00 0.00 0.00 0.00 0.00 0.00 0.00 0.00 0.00 0.00 0.00 0.00 0.00 0.00 0.00 0.00 0.00 0.00 0.00 0.00 0.00 0.02 0.03 0.01 0.00 0.00 0.00 0.01 0.01 0.01 0.01 0.01 0.00
0.00 0.00 0.00 0.00 0.00 0.00 0.00 0.00 0.00 0.00 0.00 0.00 0.00 0.00 0.00 0.00 0.00 0.00 0.00 0.00 0.01 0.00 0.00 0.00 0.00 0.00 0.00 0.00 0.00 0.00 0.01 0.03 0.01 0.00 0.00 0.00 0.00 0.02 0.01 0.00 0.00 0.01 0.00
0.00 0.00 0.00 0.00 0.00 0.00 0.00 0.00 0.00 0.00 0.00 0.00 0.00 0.00 0.00 0.00 0.00 0.00 0.00 0.00 0.05 0.01 0.00 0.00 0.00 0.00 0.00 0.00 0.00 0.00 0.00 0.02 0.00 0.00 0.00 0.04 0.02 0.05 0.02 0.00 0.00 0.01 0.01
0.00 0.00 0.00 0.00 0.00 0.00 0.00 0.00 0.00 0.00 0.00 0.00 0.00 0.00 0.00 0.00 0.00 0.01 0.00 0.01 0.09 0.04 0.00 0.00 0.00 0.00 0.00 0.00 0.00 0.00 0.00 0.00 0.00 0.00 0.00 0.00 0.03 0.04 0.01 0.01 0.00 0.00 0.00
0.00 0.00 0.00 0.00 0.00 0.00 0.00 0.00 0.00 0.00 0.00 0.00 0.00 0.00 0.00 0.01 0.01 0.01 0.01 0.01 0.05 0.05 0.01 0.00 0.00 0.00 0.00 0.00 0.00 0.00 0.00 0.00 0.00 0.00 0.00 0.00 0.04 0.03 0.01 0.01 0.00 0.00 0.00
0.00 0.00 0.00 0.00 0.00 0.00 0.00 0.01 0.01 0.01 0.00 0.00 0.00 0.00 0.00 0.01 0.05 0.00 0.02 0.02 0.09 0.09 0.05 0.00 0.00 0.00 0.00 0.00 0.00 0.00 0.00 0.00 0.00 0.00 0.00 0.00 0.02 0.01 0.01 0.01 0.00 0.00 0.00
0.00 0.00 0.00 0.00 0.00 0.00 0.00 0.01 0.01 0.02 0.00 0.00 0.00 0.00 0.00 0.00 0.01 0.00 0.00 0.00 0.02 0.06 0.05 0.00 0.00 0.00 0.00 0.00 0.00 0.00 0.00 0.00 0.00 0.00 0.00 0.01 0.02 0.01 0.00 0.00 0.00 0.00 0.00
0.00 0.00 0.00 0.00 0.00 0.00 0.00 0.00 0.01 0.01 0.01 0.00 0.00 0.00 0.00 0.00 0.00 0.00 0.00 0.00 0.02 0.05 0.02 0.02 0.00 0.00 0.00 0.00 0.00 0.00 0.00 0.00 0.00 0.00 0.00 0.01 0.01 0.00 0.00 0.00 0.00 0.00 0.00
0.00 0.00 0.00 0.00 0.00 0.00 0.00 0.00 0.00 0.00 0.00 0.00 0.00 0.00 0.00 0.00 0.00 0.02 0.01 0.03 0.06 0.07 0.03 0.02 0.00 0.00 0.00 0.00 0.00 0.00 0.00 0.00 0.00 0.00 0.00 0.00 0.00 0.00 0.00 0.00 0.00 0.00 0.00
0.00 0.00 0.00 0.00 0.00 0.00 0.00 0.00 0.00 0.02 0.03 0.00 0.01 0.00 0.00 0.00 0.03 0.06 0.05 0.02 0.04 0.04 0.01 0.00 0.00 0.00 0.00 0.00 0.00 0.00 0.00 0.00 0.00 0.00 0.00 0.00 0.00 0.00 0.00 0.00 0.00 0.00 0.00
0.00 0.00 0.00 0.00 0.00 0.00 0.00 0.00 0.00 0.01 0.10 0.13 0.10 0.06 0.06 0.03 0.07 0.11 0.12 0.07 0.06 0.05 0.01 0.00 0.01 0.02 0.00 0.00 0.00 0.00 0.00 0.00 0.00 0.00 0.00 0.00 0.00 0.01 0.00 0.00 0.00 0.00 0.00
0.00 0.00 0.00 0.00 0.00 0.00 0.00 0.00 0.00 0.00 0.00 0.00 0.00 0.00 0.01 0.01 0.04 0.13 0.17 0.10 0.14 0.10 0.05 0.01 0.02 0.08 0.02 0.03 0.00 0.00 0.00 0.00 0.00 0.00 0.00 0.00 0.02 0.00 0.00 0.00 0.00 0.00 0.00
0.00 0.00 0.00 0.00 0.00 0.00 0.00 0.00 0.00 0.00 0.00 0.00 0.00 0.00 0.00 0.00 0.00 0.00 0.00 0.00 0.00 0.01 0.02 0.01 0.04 0.04 0.03 0.01 0.00 0.00 0.00 0.00 0.00 0.00 0.00 0.00 0.01 0.01 0.00 0.00 0.00 0.00 0.00
0.00 0.00 0.00 0.00 0.00 0.00 0.00 0.00 0.00 0.00 0.00 0.00 0.00 0.00 0.00 0.00 0.00 0.00 0.00 0.00 0.00 0.00 0.00 0.00 0.00 0.04 0.02 0.00 0.00 0.00 0.00 0.00 0.00 0.00 0.00 0.00 0.00 0.01 0.00 0.00 0.00 0.01 0.00
0.00 0.00 0.00 0.00 0.00 0.00 0.00 0.00 0.00 0.00 0.00 0.00 0.00 0.00 0.00 0.00 0.00 0.00 0.00 0.00 0.00 0.00 0.00 0.01 0.04 0.05 0.01 0.00 0.01 0.01 0.00 0.00 0.00 0.00 0.00 0.00 0.00 0.00 0.00 0.00 0.00 0.00 0.00
0.00 0.00 0.00 0.00 0.00 0.00 0.00 0.00 0.00 0.00 0.00 0.00 0.00 0.00 0.00 0.00 0.00 0.00 0.00 0.00 0.00 0.00 0.00 0.01 0.04 0.06 0.02 0.05 0.04 0.03 0.01 0.00 0.00 0.00 0.00 0.00 0.01 0.00 0.00 0.02 0.01 0.00 0.01
0.00 0.00 0.00 0.00 0.00 0.00 0.00 0.00 0.00 0.00 0.00 0.00 0.00 0.00 0.00 0.00 0.00 0.00 0.00 0.00 0.00 0.00 0.01 0.02 0.00 0.00 0.01 0.03 0.05 0.04 0.03 0.01 0.02 0.02 0.00 0.00 0.01 0.02 0.02 0.00 0.00 0.01 0.01
0.00 0.00 0.00 0.00 0.00 0.00 0.00 0.00 0.00 0.00 0.00 0.00 0.00 0.00 0.00 0.00 0.00 0.00 0.00 0.00 0.00 0.00 0.00 0.00 0.00 0.00 0.01 0.01 0.01 0.02 0.03 0.02 0.01 0.02 0.01 0.01 0.00 0.01 0.02 0.00 0.00 0.00 0.02
0.00 0.00 0.00 0.00 0.00 0.00 0.00 0.00 0.00 0.00 0.00 0.00 0.00 0.00 0.00 0.00 0.00 0.00 0.00 0.00 0.00 0.00 0.00 0.00 0.01 0.00 0.00 0.01 0.02 0.04 0.04 0.02 0.01 0.01 0.00 0.00 0.00 0.01 0.01 0.02 0.02 0.00 0.00
0.00 0.00 0.00 0.00 0.00 0.00 0.00 0.00 0.00 0.00 0.00 0.00 0.00 0.00 0.00 0.00 0.00 0.00 0.00 0.00 0.00 0.00 0.00 0.00 0.00 0.01 0.01 0.00 0.02 0.03 0.01 0.01 0.01 0.00 0.00 0.01 0.01 0.00 0.02 0.06 0.05 0.01 0.00
0.00 0.00 0.00 0.00 0.00 0.00 0.00 0.00 0.00 0.00 0.00 0.00 0.00 0.00 0.00 0.00 0.00 0.00 0.00 0.00 0.00 0.00 0.00 0.00 0.01 0.00 0.01 0.02 0.01 0.02 0.01 0.01 0.00 0.00 0.00 0.00 0.01 0.02 0.02 0.01 0.06 0.04 0.02
0.00 0.00 0.00 0.00 0.00 0.00 0.00 0.00 0.00 0.00 0.00 0.00 0.00 0.00 0.00 0.00 0.01 0.00 0.00 0.00 0.00 0.00 0.01 0.00 0.00 0.00 0.01 0.02 0.01 0.01 0.01 0.00 0.00 0.00 0.00 0.00 0.00 0.02 0.05 0.01 0.02 0.04 0.02
0.00 0.00 0.00 0.00 0.00 0.00 0.00 0.00 0.00 0.00 0.00 0.00 0.00 0.00 0.00 0.00 0.00 0.00 0.00 0.00 0.00 0.00 0.00 0.01 0.01 0.01 0.02 0.01 0.00 0.00 0.00 0.00 0.00 0.00 0.00 0.00 0.00 0.00 0.02 0.00 0.00 0.01 0.01
MSLP
1011.13 1011.02 1011.34 1011.68 1012.14 1012.37 1012.58 1012.74 1012.83 1012.97 1013.10 1013.29 1013.46 1013.57 1013.63 1013.70 1013.77 1013.78 1013.97 1013.97 1013.98 1014.05 1014.04 1014.00 1013.97 1014.05 1013.96 1013.79 1013.87 1013.69 1013.60 1013.61 1013.35 1013.28 1013.15 1012.97 1012.77 1012.56 1012.41 1012.22 1011.90 1011.72 1011.66
1010.81 1011.08 1011.34 1011.70 1012.10 1012.36 1012.63 1012.85 1013.02 1013.19 1013.41 1013.34 1013.54 1013.68 1013.78 1013.84 1013.97 1013.97 1014.05 1014.10 1014.17 1014.21 1014.28 1014.27 1014.27 1014.37 1014.29 1014.24 1014.26 1014.06 1013.75 1013.79 1013.69 1013.53 1013.50 1013.34 1013.17 1012.87 1012.80 1012.64 1012.28 1012.16 1011.98
1010.78 1011.11 1011.46 1011.71 1012.07 1012.37 1012.58 1012.87 1013.19 1013.32 1013.55 1013.58 1013.61 1013.83 1013.92 1014.01 1014.08 1014.09 1014.18 1014.21 1014.32 1014.36 1014.57 1014.50 1014.57 1014.61 1014.57 1014.63 1014.62 1014.36 1014.03 1013.98 1013.97 1013.93 1013.78 1013.80 1013.60 1013.19 1013.16 1012.98 1012.78 1012.69 1012.39
1010.50 1011.14 1011.50 1011.80 1012.07 1012.35 1012.62 1012.91 1013.19 1013.51 1013.59 1013.76 1013.82 1013.92 1013.91 1014.09 1014.18 1014.25 1014.42 1014.46 1014.51 1014.57 1014.74 1014.84 1014.84 1014.93 1014.73 1015.00 1014.86 1014.59 1014.33 1014.31 1014.34 1014.29 1014.31 1014.21 1013.92 1013.74 1013.61 1013.45 1013.30 1013.24 1013.03
1010.48 1011.03 1011.46 1011.85 1012.17 1012.40 1012.67 1012.97 1013.23 1013.54 1013.68 1013.82 1013.97 1014.01 1014.14 1014.19 1014.20 1014.34 1014.49 1014.56 1014.73 1014.75 1015.00 1015.11 1015.13 1015.17 1015.09 1015.24 1015.20 1014.83 1014.72 1014.62 1014.72 1014.67 1014.73 1014.66 1014.53 1014.28 1014.12 1013.98 1013.89 1013.74 1013.66
1010.31 1010.57 1011.19 1011.68 1012.00 1012.35 1012.70 1013.00 1013.21 1013.42 1013.70 1013.81 1013.98 1014.10 1014.15 1014.37 1014.27 1014.48 1014.52 1014.77 1014.97 1014.97 1015.19 1015.36 1015.46 1015.42 1015.43 1015.52 1015.38 1015.24 1015.11 1015.06 1015.06 1015.28 1015.19 1015.09 1014.96 1014.66 1014.53 1014.51 1014.34 1014.22 1014.26
1010.20 1010.53 1010.88 1011.29 1011.77 1012.23 1012.59 1012.85 1013.14 1013.39 1013.54 1013.82 1014.00 1014.02 1014.15 1014.38 1014.40 1014.55 1014.61 1014.93 1015.18 1015.11 1015.32 1015.56 1015.61 1015.64 1015.63 1015.65 1015.65 1015.52 1015.44 1015.41 1015.50 1015.74 1015.75 1015.59 1015.34 1015.01 1014.93 1014.99 1014.82 1014.84 1014.82
1009.93 1010.21 1010.67 1011.30 1011.53 1011.91 1012.38 1012.67 1013.02 1013.36 1013.56 1013.69 1014.04 1014.10 1014.10 1014.14 1014.38 1014.63 1014.81 1015.08 1015.23 1015.39 1015.52 1015.59 1015.75 1015.85 1015.85 1015.82 1015.80 1015.70 1015.58 1015.70 1015.62 1016.00 1016.12 1016.05 1015.78 1015.53 1015.42 1015.33 1015.44 1015.43 1015.32
1009.56 1010.28 1010.62 1011.08 1011.56 1011.80 1012.26 1012.46 1012.88 1013.27 1013.49 1013.78 1013.89 1014.07 1014.12 1014.14 1014.35 1014.66 1014.91 1015.05 1015.32 1015.53 1015.57 1015.66 1015.86 1015.96 1016.00 1015.99 1016.03 1015.92 1016.01 1015.89 1015.98 1016.16 1016.34 1016.41 1016.16 1016.06 1016.03 1015.92 1015.90 1015.88 1015.78
1009.74 1010.37 1010.72 1010.96 1011.35 1011.72 1012.10 1012.38 1012.66 1013.05 1013.43 1013.70 1013.96 1013.97 1014.27 1014.20 1014.41 1014.53 1014.87 1015.00 1015.34 1015.62 1015.69 1015.67 1015.86 1015.96 1016.08 1016.10 1016.26 1016.25 1016.27 1016.29 1016.16 1016.38 1016.73 1016.74 1016.47 1016.59 1016.51 1016.52 1016.37 1016.30 1016.34
1010.11 1010.38 1010.71 1011.04 1011.40 1011.68 1011.96 1012.23 1012.66 1012.82 1013.34 1013.63 1013.98 1014.07 1014.20 1014.36 1014.42 1014.46 1014.79 1015.01 1015.33 1015.65 1015.76 1015.82 1015.90 1016.00 1016.13 1016.13 1016.26 1016.53 1016.45 1016.72 1016.58 1016.60 1016.88 1017.00 1016.95 1016.91 1016.98 1017.06 1016.93 1016.83 1016.71
1010.21 1010.53 1010.69 1010.85 1011.26 1011.43 1011.70 1012.02 1012.44 1012.78 1013.28 1013.49 1013.82 1014.06 1014.18 1014.40 1014.42 1014.43 1014.70 1014.85 1015.27 1015.62 1015.84 1015.91 1015.98 1016.12 1016.19 1016.25 1016.22 1016.71 1016.82 1017.02 1017.09 1016.98 1017.01 1017.11 1017.22 1017.42 1017.47 1017.54 1017.41 1017.31 1017.28
1009.59 1010.15 1010.33 1010.67 1010.84 1011.25 1011.57 1012.16 1012.31 1012.76 1013.12 1013.33 1013.45 1013.70 1014.03 1014.35 1014.29 1014.41 1014.67 1014.89 1015.25 1015.54 1015.97 1016.06 1016.12 1016.28 1016.37 1016.31 1016.30 1016.88 1017.01 1017.30 1017.25 1017.22 1017.23 1017.28 1017.45 1017.77 1017.94 1017.85 1017.92 1017.79 1017.74
1009.08 1009.31 1009.67 1010.21 1010.75 1011.08 1011.38 1011.80 1012.23 1012.46 1012.87 1013.09 1013.30 1013.27 1013.95 1014.37 1014.33 1014.65 1014.78 1015.13 1015.28 1015.75 1016.12 1016.21 1016.26 1016.33 1016.46 1016.39 1016.10 1016.81 1016.96 1017.38 1017.42 1017.46 1017.46 1017.39 1017.58 1018.08 1018.31 1018.45 1018.29 1018.34 1018.32
1008.67 1008.90 1009.28 1009.78 1010.39 1010.94 1011.35 1011.52 1011.93 1012.19 1012.42 1012.57 1012.99 1012.89 1013.44 1014.11 1014.46 1014.66 1014.87 1015.12 1015.45 1015.68 1016.06 1016.29 1016.35 1016.54 1016.63 1016.72 1016.46 1016.30 1017.05 1017.40 1017.53 1017.70 1017.73 1017.72 1017.82 1018.00 1018.61 1018.74 1018.71 1018.86 1018.82
1008.23 1008.61 1008.95 1009.56 1010.06 1010.57 1011.07 1011.42 1011.67 1011.88 1012.14 1012.52 1012.71 1012.80 1013.33 1013.82 1014.01 1014.31 1014.78 1014.98 1015.34 1015.47 1015.91 1016.13 1016.43 1016.58 1016.88 1016.92 1016.66 1016.55 1017.06 1017.35 1017.56 1017.91 1017.94 1018.11 1018.12 1018.32 1018.67 1019.02 1019.21 1019.29 1019.39
1007.77 1008.13 1008.69 1009.16 1009.76 1010.35 1010.78 1011.29 1011.58 1011.79 1012.08 1012.52 1012.65 1012.89 1013.43 1013.65 1013.85 1014.09 1014.63 1014.95 1015.19 1015.33 1015.66 1016.04 1016.45 1016.72 1017.16 1017.12 1017.04 1017.23 1017.41 1017.72 1017.95 1018.19 1018.25 1018.72 1018.80 1018.61 1018.85 1019.17 1019.52 1019.62 1019.77
1007.19 1007.77 1008.26 1008.74 1009.46 1010.05 1010.59 1011.18 1011.50 1011.56 1011.89 1012.34 1012.78 1013.05 1013.38 1013.34 1013.85 1014.10 1014.42 1014.82 1014.95 1015.21 1015.63 1016.09 1016.56 1016.94 1017.47 1017.67 1017.44 1017.76 1017.88 1017.80 1018.07 1018.20 1018.32 1018.88 1019.18 1019.36 1019.23 1019.39 1019.76 1020.02 1020.20
1006.64 1007.20 1008.11 1008.59 1009.19 1009.76 1010.42 1011.04 1011.38 1011.50 1011.95 1012.19 1012.54 1012.96 1013.15 1013.34 1013.65 1014.00 1014.50 1014.79 1014.91 1015.39 1015.75 1016.08 1016.66 1017.08 1017.70 1018.14 1018.30 1018.11 1018.38 1018.28 1018.22 1018.36 1018.64 1018.97 1019.13 1019.38 1019.74 1019.67 1019.99 1020.25 1020.57
1005.99 1006.57 1007.37 1008.24 1008.94 1009.63 1010.38 1011.20 1011.59 1011.87 1012.16 1012.34 1012.67 1012.91 1013.05 1013.32 1013.57 1013.97 1014.46 1014.82 1015.04 1015.68 1015.97 1016.33 1016.63 1017.31 1017.83 1018.10 1018.87 1018.98 1018.92 1018.93 1018.57 1018.65 1019.00 1019.32 1019.54 1019.54 1019.87 1020.08 1020.38 1020.41 1020.79
1005.57 1006.35 1007.24 1008.02 1008.98 1009.66 1010.42 1011.25 1011.97 1012.22 1012.50 1012.82 1012.96 1012.93 1013.14 1013.43 1013.68 1014.00 1014.45 1014.84 1014.93 1015.65 1016.17 1016.41 1017.01 1017.43 1018.18 1018.28 1018.90 1019.45 1019.54 1019.49 1019.36 1019.37 1019.42 1019.53 1019.93 1020.12 1020.04 1020.27 1020.51 1020.65 1020.81
1005.18 1005.82 1006.95 1007.77 1008.63 1009.36 1010.03 1010.82 1011.61 1012.17 1012.48 1012.60 1012.83 1012.91 1013.11 1013.34 1013.68 1013.84 1014.54 1014.93 1015.30 1015.76 1016.20 1016.56 1016.79 1017.51 1018.01 1018.30 1018.82 1019.46 1019.99 1020.28 1019.84 1019.94 1019.89 1020.00 1020.30 1020.44 1020.51 1020.45 1020.42 1020.41 1020.84
1004.85 1005.48 1006.27 1007.17 1008.13 1009.09 1009.74 1010.68 1011.55 1012.14 1012.52 1012.92 1013.14 1013.28 1013.22 1013.19 1013.54 1013.88 1014.36 1014.85 1015.26 1015.67 1016.24 1016.46 1016.71 1017.11 1017.78 1018.44 1018.51 1018.96 1019.79 1020.06 1019.98 1020.39 1020.45 1020.56 1020.61 1020.76 1020.81 1020.94 1020.70 1020.57 1020.74
1004.65 1005.23 1006.00 1006.76 1007.76 1008.74 1009.57 1010.65 1011.48 1012.12 1012.77 1012.83 1012.86 1012.96 1013.06 1013.06 1013.46 1013.82 1014.19 1014.47 1014.98 1015.45 1015.97 1016.39 1016.77 1017.04 1017.37 1018.09 1018.73 1018.81 1018.89 1019.01 1019.66 1020.52 1020.54 1020.60 1020.73 1020.74 1020.82 1020.91 1021.05 1020.99 1020.93
1004.95 1005.59 1006.36 1007.09 1007.87 1008.46 1009.42 1010.41 1011.35 1012.07 1012.34 1012.36 1012.57 1012.94 1013.18 1013.16 1013.20 1013.66 1014.02 1014.26 1014.81 1015.27 1015.71 1016.13 1016.65 1017.04 1017.21 1017.73 1018.13 1018.73 1019.05 1019.18 1019.46 1019.91 1020.49 1020.61 1020.73 1020.84 1020.87 1020.65 1021.05 1021.34 1021.20
1005.51 1006.19 1006.87 1007.62 1008.53 1009.04 1009.67 1010.49 1011.30 1011.87 1012.28 1012.52 1012.76 1013.27 1013.51 1013.38 1013.56 1013.88 1014.10 1014.48 1014.74 1015.06 1015.42 1015.90 1016.30 1016.74 1017.18 1017.44 1017.75 1018.16 1018.37 1018.76 1019.12 1019.44 1020.05 1020.27 1020.59 1020.76 1020.87 1020.86 1021.19 1021.29 1021.18
Thickness
5787 5789 5786 5784 5780 5778 5777 5776 5775 5775 5774 5772 5770 5768 5767 5766 5764 5765 5762 5762 5762 5761 5762 5762 5762 5760 5760 5761 5760 5761 5761 5760 5761 5760 5760 5761 5760 5759 5758 5758 5759 5759 5757
5790 5787 5785 5782 5778 5776 5774 5772 5772 5770 5768 5770 5767 5765 5764 5764 5761 5761 5760 5759 5758 5758 5757 5757 5758 5756 5756 5756 5755 5756 5758 5757 5757 5758 5757 5757 5757 5757 5755 5755 5756 5755 5754
5788 5785 5781 5780 5776 5774 5772 5770 5767 5767 5765 5765 5764 5761 5760 5760 5758 5758 5756 5756 5754 5754 5752 5753 5752 5751 5752 5750 5750 5751 5754 5754 5753 5753 5754 5752 5753 5755 5753 5752 5752 5750 5750
5787 5781 5778 5775 5773 5770 5768 5766 5764 5762 5762 5761 5760 5758 5758 5757 5756 5755 5752 5752 5751 5750 5748 5747 5747 5745 5748 5744 5745 5747 5749 5750 5749 5749 5748 5748 5749 5749 5749 5749 5747 5745 5744
5783 5778 5774 5771 5769 5767 5765 5762 5760 5758 5759 5758 5756 5756 5754 5753 5753 5751 5749 5748 5746 5746 5743 5742 5741 5740 5741 5740 5739 5742 5743 5744 5743 5744 5743 5743 5742 5743 5744 5744 5743 5741 5739
5783 5779 5774 5769 5767 5763 5761 5759 5757 5757 5755 5755 5754 5753 5751 5749 5750 5747 5747 5744 5741 5742 5740 5737 5735 5736 5736 5734 5735 5736 5737 5737 5738 5736 5737 5737 5737 5738 5739 5738 5738 5737 5734
5781 5775 5774 5770 5765 5760 5758 5757 5755 5754 5754 5752 5750 5751 5748 5746 5746 5745 5744 5740 5737 5739 5736 5732 5731 5731 5731 5731 5730 5731 5731 5731 5731 5729 5729 5730 5731 5733 5733 5731 5733 5731 5729
5779 5776 5771 5766 5764 5760 5756 5754 5753 5751 5750 5750 5746 5746 5746 5746 5743 5742 5740 5737 5735 5733 5731 5729 5727 5726 5726 5726 5726 5726 5727 5725 5727 5724 5723 5723 5724 5725 5725 5726 5725 5724 5724
5781 5771 5769 5765 5760 5759 5755 5753 5750 5748 5747 5745 5745 5743 5743 5743 5741 5738 5736 5734 5731 5728 5727 5726 5724 5723 5722 5721 5720 5721 5719 5721 5721 5718 5716 5716 5717 5718 5717 5717 5717 5717 5718
5773 5768 5764 5763 5758 5756 5754 5751 5749 5746 5744 5742 5740 5741 5738 5740 5737 5736 5732 5731 5726 5723 5722 5722 5720 5719 5717 5715 5714 5714 5714 5713 5715 5713 5710 5709 5710 5709 5710 5710 5710 5711 5710
5759 5762 5760 5757 5754 5752 5750 5748 5746 5744 5741 5738 5735 5736 5735 5735 5733 5733 5729 5726 5722 5718 5717 5716 5715 5714 5711 5710 5709 5708 5709 5707 5706 5706 5703 5701 5701 5702 5702 5702 5702 5703 5703
5749 5750 5754 5753 5750 5749 5747 5745 5742 5740 5736 5736 5734 5732 5731 5729 5728 5728 5724 5722 5717 5713 5712 5711 5710 5708 5706 5706 5705 5701 5701 5700 5699 5697 5698 5696 5694 5693 5694 5693 5694 5695 5695
5750 5746 5750 5748 5746 5744 5743 5737 5738 5735 5732 5732 5732 5730 5727 5723 5725 5722 5720 5717 5713 5708 5705 5704 5703 5702 5700 5700 5698 5693 5693 5692 5693 5690 5689 5689 5688 5686 5685 5686 5686 5687 5688
5750 5747 5746 5746 5741 5739 5738 5735 5733 5732 5730 5729 5727 5729 5722 5718 5719 5716 5713 5708 5708 5702 5699 5698 5697 5696 5694 5692 5693 5686 5687 5684 5684 5683 5681 5682 5681 5677 5676 5676 5678 5678 5678
5747 5748 5742 5742 5737 5733 5731 5732 5730 5730 5728 5727 5724 5726 5719 5714 5712 5710 5708 5704 5700 5697 5693 5690 5689 5686 5685 5683 5685 5684 5678 5677 5675 5673 5672 5672 5672 5671 5667 5667 5669 5668 5669
5743 5743 5740 5736 5735 5732 5728 5727 5728 5726 5724 5721 5720 5720 5714 5710 5710 5707 5703 5700 5694 5692 5687 5684 5681 5679 5676 5674 5676 5676 5671 5670 5667 5663 5663 5661 5662 5663 5659 5657 5657 5658 5659
5736 5739 5737 5732 5732 5728 5726 5723 5721 5719 5718 5716 5714 5712 5706 5706 5704 5701 5698 5694 5690 5686 5683 5679 5673 5670 5666 5665 5665 5663 5660 5659 5657 5654 5652 5649 5647 5650 5651 5648 5647 5648 5649
5733 5732 5734 5733 5726 5724 5723 5719 5716 5715 5714 5710 5708 5705 5702 5702 5696 5695 5693 5688 5684 5682 5676 5671 5666 5661 5656 5653 5654 5650 5648 5647 5646 5645 5642 5639 5638 5637 5639 5638 5636 5636 5637
5732 5731 5727 5727 5722 5718 5718 5713 5712 5710 5708 5706 5703 5698 5696 5697 5693 5689 5684 5682 5679 5673 5668 5663 5658 5653 5647 5642 5638 5637 5634 5634 5636 5633 5631 5630 5631 5630 5629 5629 5626 5627 5626
5732 5730 5727 5722 5718 5714 5712 5705 5703 5702 5700 5699 5695 5691 5689 5688 5687 5681 5676 5675 5671 5663 5658 5653 5651 5644 5639 5634 5625 5621 5620 5622 5626 5624 5621 5619 5619 5622 5620 5619 5618 5618 5616
5729 5725 5721 5716 5709 5707 5703 5696 5692 5691 5690 5687 5687 5686 5682 5679 5677 5674 5668 5664 5664 5654 5648 5645 5639 5634 5627 5625 5617 5611 5609 5609 5612 5612 5612 5610 5608 5609 5611 5609 5610 5610 5609
5726 5724 5716 5712 5705 5703 5700 5694 5689 5686 5684 5684 5681 5679 5676 5674 5671 5670 5662 5656 5652 5646 5640 5636 5633 5626 5620 5616 5610 5602 5596 5594 5598 5601 5602 5601 5600 5599 5599 5601 5604 5604 5602
5722 5720 5716 5710 5703 5697 5695 5689 5682 5679 5676 5672 5671 5669 5668 5669 5664 5662 5656 5649 5644 5639 5633 5629 5627 5621 5615 5608 5605 5598 5587 5585 5591 5588 5591 5592 5592 5591 5590 5590 5594 5596 5595
5718 5715 5711 5709 5701 5694 5689 5683 5677 5670 5666 5666 5666 5664 5664 5663 5658 5653 5648 5642 5638 5633 5628 5623 5619 5615 5611 5604 5596 5593 5590 5590 5587 5585 5585 5587 5586 5585 5584 5584 5585 5585 5586
5706 5704 5700 5698 5694 5690 5683 5676 5670 5664 5664 5665 5663 5659 5658 5657 5653 5647 5641 5635 5631 5627 5622 5618 5613 5608 5606 5601 5597 5589 5586 5584 5584 5584 5582 5583 5582 5580 5578 5580 5578 5576 5577
5693 5691 5689 5685 5680 5679 5674 5670 5665 5660 5658 5657 5655 5650 5647 5647 5643 5638 5632 5628 5624 5620 5616 5613 5609 5605 5601 5598 5594 5590 5589 5587 5586 5585 5583 5581 5579 5575 5571 5572 5571 5570 5571